Regional Weather Roundup
Issued by NWS Wilmington, NC

Home | Current Version | Previous Version | Text Only | Print | Product List | Glossary On
Versions: 1 2 3 4 5 6 7 8 9 10 11 12 13 14 15 16 17 18 19 20 21 22 23 24 25 26 27
000
ASUS42 KILM 261113
RWRILM
RWRILM
REGIONAL HOURLY WEATHER ROUNDUP
NATIONAL WEATHER SERVICE WILMINGTON NC
700 AM EDT FRI MAY 26 2017

NOTE: "FAIR" INDICATES FEW OR NO CLOUDS BELOW 12,000 FEET WITH NO
SIGNIFICANT WEATHER AND/OR OBSTRUCTIONS TO VISIBILITY.

...............WFO WILMINGTON COUNTY WARNING AREA...............

......COASTAL NC AND SC COUNTIES......

CITY           SKY/WX    TMP DP  RH WIND       PRES   REMARKS
WILMINGTON     MOSUNNY   63  55  75 W7        29.93R
N MYRTLE BEACH CLEAR     62  54  74 W8        29.95R
MYRTLE BEACH   CLEAR     63  54  72 W10       29.97R

......INLAND NC AND SC COUNTIES.......

CITY           SKY/WX    TMP DP  RH WIND       PRES   REMARKS
LUMBERTON      CLEAR     60  55  83 W6        29.92R
ELIZABETHTOWN  CLEAR     62  54  76 W6        29.93R
WHITEVILLE     CLEAR     61  54  77 W5        29.93R
FLORENCE       CLEAR     59  54  83 W5        29.95R
DARLINGTON     CLEAR     61  54  77 W8        29.95R
KINGSTREE      FAIR      57  52  82 CALM      29.96R
HARTSVILLE     FAIR      57  52  82 W3        29.95R
BENNETTSVILLE  FAIR      63  55  77 W6        29.94R
CONWAY         FAIR      59  54  82 SW5       29.96R FOG
GEORGETOWN     FAIR      57  55  94 SW6       29.98R
MARION         FAIR      59  52  77 W5        29.95R

....................REST OF NORTH CAROLINA......................

.........EASTERN NC.........

CITY           SKY/WX    TMP DP  RH WIND       PRES   REMARKS
CAPE HATTERAS  SUNNY     70  58  65 W14G23    29.85R
JACKSONVILLE   SUNNY     61  55  81 SW7       29.91R
MOREHEAD CITY  SUNNY     68  56  65 W14       29.89R
KENANSVILLE    SUNNY     61  54  77 SW10      29.91R
NEW BERN       SUNNY     63  55  75 W10       29.90R
ELIZABETH CITY SUNNY     65  56  72 W17G23    29.79R

.........CENTRAL NC.........

CITY           SKY/WX    TMP DP  RH WIND       PRES   REMARKS
RALEIGH DURHAM CLEAR     60  54  80 SW7       29.89R
ROCKY MOUNT    SUNNY     62  56  80 SW7       29.86R
ROANOKE RAPIDS NOT AVBL
FAYETTEVILLE   CLEAR     62  54  74 SW8       29.91R
HOFFMAN        CLEAR     58  54  86 SW5       29.91R

.........WESTERN NC.........

CITY           SKY/WX    TMP DP  RH WIND       PRES   REMARKS
CHARLOTTE      CLEAR     58  51  78 SW3       29.95R
GREENSBORO     PTCLDY    58  53  84 W10       29.89R
HICKORY        NOT AVBL
BOONE          NOT AVBL
ASHEVILLE      NOT AVBL

.....................REST OF SOUTH CAROLINA.....................

.........EASTERN SC.........

CITY           SKY/WX    TMP DP  RH WIND       PRES   REMARKS
CHARLESTON     CLEAR     61  53  75 W6        29.99R
BEAUFORT MCAS  CLEAR     63  55  75 W3        30.00R
HILTON HEAD    CLEAR     63  55  77 SW5       30.02R

.........CENTRAL SC.........

CITY           SKY/WX    TMP DP  RH WIND       PRES   REMARKS
COLUMBIA       CLEAR     57  53  86 W3        29.97R
ORANGEBURG     CLEAR     57  54  89 SW5       29.98R
SUMTER SHAW    CLEAR     59  53  79 W6        29.94R

.........WESTERN SC.........

CITY           SKY/WX    TMP DP  RH WIND       PRES   REMARKS
GREENVILLE     NOT AVBL
ROCK HILL      CLEAR     57  52  83 W8        29.95R
ANDERSON       CLEAR     54  52  93 CALM      29.98R
CLEMSON        NOT AVBL
GREENWOOD      CLEAR     56  51  84 W7        29.99R


...................COASTAL AND OFFSHORE REPORTS..................

................LOCAL PIERS AND NC RESERVE................


STATION/POSITION TIME  SKY/WX   TEMP    WIND        PRES    VSBY
                                AIR SEA DIR/SP/G
                 (UTC)          (F)     (DEG/KT/KT) (MB)    (MI)
JOHNY MRCER PIER 1048            65 74  270/ 11/ 14 1012.2R
NC RESRV MASNBRO 0945            65     290/  3     1013.0
OCEAN CREST PIER NOT AVBL
SPRINGMAID  PIER 1048                               1013.5R


................COASTAL AND OFFSHORE BUOYS................


STATION/POSITION TIME  SKY/WX   TEMP    WIND        PRES    VSBY
                                AIR SEA DIR/SP/G
                 (UTC)          (F)     (DEG/KT/KT) (MB)    (MI)
DIMNDSHOAL 41025 1050            72 78  270/ 23/ 29 1010.4R
WVE H/P(F/S)=  9/ 8 SWL H/P/D(F/S/D)=  7/220/ 8

CAPE LOOKOUT     1100            69     280/ 20/ 22 1011.9R
ONSLOW BAY 41036 NOT AVBL
ONSLOW BAY 41064 1008            71 76  280/ 21/ 27 1011.8R
ONSLOW BAY 41159 1043               77                N/A
WVE H/P(F/S)=  8/ 8

MASNBO INL 41110 1059               74                N/A
WVE H/P(F/S)=  3/ 8

WILM HARBR 41108 1047               75                N/A
WVE H/P(F/S)=  6/ 6

27SE WRITB 41037 1008            71 75  260/ 19/ 27 1011.4R
FRYING PAN 41013 1100            73 75  270/ 17/ 23 1014.0
SUNST NRSH 41024 1008            67 74  290/ 12/ 16 1012.5R
CAPRS NRSH 41029 1008            74 76  290/ 14/ 17 1014.4R
EDISTO     41004 1100            72 74  290/ 14/ 17 1015.1


..........OFFSHORE BUOYS BEYOND 100 NM OFFSHORE...........
.....IN A TRIANGLE---HAT TO BERMUDA TO BAHAMAS TO HAT.....


STATION/POSITION TIME  SKY/WX   TEMP    WIND        PRES    VSBY
                                AIR SEA DIR/SP/G
                 (UTC)          (F)     (DEG/KT/KT) (MB)    (MI)
150E HAT   41001 1100            74 76  260/ 19/ 25 1011.1
W BERMUDA  41048 1100            74 75  230/ 14/ 17 1015.5
ATLANTIC S 41049 1050            76 77  120/ 10/ 12 1023.4R
WVE H/P(F/S)=  4/ 9 SWL H/P/D(F/S/D)=  3/100/ 9

E BAHAMAS  41046 1100            78 80  120/ 12/ 16 1020.3
NE BAHAMAS 41047 1100            78 78  190/ 16/ 17 1018.4
120E CANVRL41010 1100            78 78  310/ 10/ 14 1016.0

END




USA.gov is the U.S. government's official web portal to all federal, state and local government web resources and services.